#timestamp,LO_Frequency,Hit,StdDev 
1570532415.4,286047002.3,N
1570532435.3,286046999.9,N
1570532455.1,286047000.1,N
1570532475.9,286047007.9,N
1570532495.7,286047011.3,N
1570532515.5,286047009.6,N
1570532535.4,286047007.7,N
1570532555.2,286047012.0,N
1570532575.0,286047014.8,N
1570532575.9,286047014.8,N
1570532595.8,286047016.0,N
1570532615.6,286047019.9,N
1570532635.5,286047019.6,N
1570532655.3,286047020.4,N
1570532675.1,286047015.0,N
1570532695.9,286047016.5,N
1570532715.7,286047013.4,N
1570532735.6,286047011.2,N
1570532755.4,286047014.0,N
1570532775.2,286047012.6,N
1570532795.1,286047011.9,N
1570532796.0,286047011.9,N
1570532815.8,286047009.1,N
1570532835.6,286047008.5,N
1570532855.5,286047009.1,N
1570532875.3,286047010.1,N
1570532895.2,286047007.9,N
1570532915.9,286047007.6,N
1570532935.7,286047004.8,N
1570532955.6,286047006.0,N
1570532975.4,286047006.5,N
1570532995.2,286047013.3,N
1570533015.1,286047011.2,N
1570533016.0,286047011.2,N
1570533035.8,286047007.9,N
1570533055.7,286047011.9,N
1570533075.5,286047010.4,N
1570533095.3,286047009.8,N
1570533115.2,286047009.3,N
1570533135.0,286047008.9,N
1570533135.9,286047008.9,N
1570533155.7,286047006.5,N
1570533175.6,286047006.2,N
1570533195.4,286047008.9,N
1570533215.3,286047010.3,Y
1570533235.1,286047000.5,P
1570533255.8,286047003.8,N
1570533275.7,286047004.0,N
1570533295.5,286047002.8,N
1570533315.4,286046998.1,N
1570533335.2,286046996.9,N
1570533355.0,286046996.6,N
1570533355.9,286046996.6,N
1570533375.8,286046996.6,N
1570533395.6,286046999.1,N
1570533415.4,286046996.1,N
1570533435.3,286046995.9,N
1570533455.1,286046994.7,N
1570533475.9,286046994.8,N
1570533495.7,286046992.4,N
1570533515.5,286046992.2,N
1570533535.4,286046992.7,N
1570533555.2,286046990.8,N
1570533575.0,286046992.7,N
1570533576.0,286046992.7,N
1570533595.8,286046993.7,N
1570533615.6,286046995.7,N
1570533635.5,286046995.7,N
1570533655.3,286046995.1,N
1570533675.1,286047003.1,N
1570533695.9,286047005.2,N
1570533715.7,286047004.8,N
1570533735.5,286047007.5,N
1570533755.4,286047001.8,N
1570533775.2,286047000.9,N
1570533795.1,286046998.8,N
1570533796.0,286046998.8,N
1570533815.8,286046999.6,N
1570533835.6,286046997.8,N
1570533855.5,286046995.5,N
1570533875.3,286046995.3,N
1570533895.2,286046998.0,N
1570533915.9,286046995.1,N
1570533935.7,286046997.9,N
1570533955.6,286046995.8,N
1570533975.4,286046993.6,N
1570533995.2,286046993.8,N
1570534015.1,286046994.2,N
1570534016.0,286046994.2,N
1570534035.8,286046992.0,N
1570534055.7,286046992.5,N
1570534075.5,286046994.4,N
1570534095.3,286046993.3,N
1570534115.2,286046993.7,N
1570534135.0,286046992.2,N
1570534135.9,286046992.2,N
1570534155.7,286046993.2,N
1570534175.6,286046993.7,N
1570534195.4,286046993.3,N
1570534215.3,286046994.6,N
1570534235.1,286046994.3,N
1570534236.0,286046994.3,N
1570534255.8,286046991.8,N
1570534275.7,286046991.9,Y
1570534295.5,286046999.6,P
1570534315.4,286046999.4,N
1570534335.2,286046999.4,N
1570534355.0,286046998.3,N
1570534355.9,286046998.3,N
1570534375.8,286046999.5,N
1570534395.6,286046997.8,N
1570534415.4,286046997.5,N
1570534435.3,286046996.8,N
1570534455.1,286046999.5,N
1570534475.9,286046997.1,N
1570534495.7,286046996.6,N
1570534515.5,286046997.1,N
1570534535.4,286046995.1,Y
1570534555.2,286046997.5,P
1570534575.1,286046996.4,P
1570534576.0,286046996.4,P
1570534595.8,286046996.9,Y
1570534615.6,286046999.9,P
1570534635.5,286047000.3,N
1570534655.3,286047001.0,N
1570534675.1,286047000.1,N
1570534695.9,286046998.1,N
1570534715.7,286046996.7,N
1570534735.6,286046997.2,N
1570534755.4,286046997.1,N
1570534775.2,286046997.4,N
1570534795.1,286046997.8,N
1570534796.0,286046997.8,N
1570534815.8,286046997.5,N
1570534835.7,286046997.0,N
1570534855.5,286046995.5,Y
1570534875.3,286046997.7,P
1570534895.2,286046995.5,P
1570534915.0,286046993.9,P
1570534915.9,286046993.9,Y
1570534935.8,286046997.0,P
1570534955.6,286046997.9,P
1570534975.4,286046997.0,P
1570534995.3,286046999.1,N
1570535015.1,286046996.9,Y
1570535035.8,286047000.9,P
1570535055.7,286046998.9,N
1570535075.5,286046997.3,N
1570535095.4,286046998.5,N
1570535115.2,286047000.3,N
1570535135.0,286047000.2,N
1570535135.9,286047000.2,N
1570535155.8,286047001.0,N
1570535175.6,286047001.9,N
1570535195.4,286047002.1,N
1570535215.3,286047003.8,N
1570535235.1,286047004.4,N
1570535255.9,286047001.8,N
1570535275.7,286046999.8,N
1570535295.5,286046999.8,N
1570535315.4,286047000.9,N
1570535335.2,286047011.9,Y
1570535355.1,286046998.4,P
1570535356.0,286046998.4,N
1570535375.8,286046999.2,N
1570535395.6,286046997.8,N
1570535415.5,286046997.7,N
1570535435.3,286046995.1,Y
1570535455.2,286046996.8,P
1570535475.9,286047001.2,N
1570535495.7,286046999.4,N
1570535515.6,286046999.1,N
1570535535.4,286046998.8,N
1570535555.2,286046998.5,N
1570535575.1,286046997.1,N
1570535576.0,286046997.1,N
1570535595.8,286046996.8,N
1570535615.7,286046995.4,Y
1570535635.5,286046999.3,P
1570535655.3,286046997.6,P
1570535675.2,286046997.4,P
1570535695.0,286046997.2,Y
1570535695.9,286046997.2,P
1570535715.7,286047000.4,N
1570535735.6,286047000.8,N
1570535755.4,286047001.0,N
1570535775.3,286047001.2,N
1570535795.1,286046998.6,N
1570535796.0,286046998.6,N
1570535815.8,286046999.2,N
1570535835.7,286046998.6,N
1570535855.5,286047001.0,N
1570535875.4,286046998.8,N
1570535895.2,286047000.2,N
1570535915.0,286047000.0,N
1570535915.9,286047000.0,N
1570535935.8,286047001.1,N
1570535955.6,286047001.2,N
1570535975.4,286046998.2,N
1570535995.3,286046998.7,N
